Tracking 27420 objects as of 28-May-2023
HD Live streaming from Space Station
objects crossing your sky now

BREEZE-M DEB

Track BREEZE-M DEB now!
10-day predictions


NORAD ID: 38574
Int'l Code: 2008-011V
Perigee: 1,221.3 km
Apogee: 26,488.4 km
Inclination: 48.6 °
Period: 477.1 minutes
Semi major axis: 20225 km
RCS: 0.0005 m2 (small)
Launch date: March 14, 2008
Source: Commonwealth of Independent States (former USSR) (CIS)
Launch site: TYURATAM MISSILE AND SPACE COMPLEX (TTMTR)

Note: This is SATELLITE DEBRIS
Your satellite tracking list
Your tracking list is empty




NASA's NSSDC Master Catalog

Two Line Element Set (TLE):
1 38574U 08011V   23146.01571575  .00000059  00000-0  00000-0 0  9998
2 38574  48.5624 187.3203 6246247 125.6242 309.5829  3.01816107 18704
Source of the keplerian elements: AFSPC